SWR282 LSZH-FAOR

Flight info

Callsign SWR282
Flight time N/A
Altitude 34000
Route VEBIT T53 GERSA DCT SOSON DCT ODINA DCT EVROG/N0465F370 DCT OLBEK DCT OSMAR UM733 TUC/N0473F360 UW411 EBA UG362 BARKA/N0476F370 UM2 DJA UB730 DIR/N0474F390 UG727 MIU UM998 IBRIT UT941 RUDAS UQ25 ITROL/N0467F400 UQ44 AVAGO AVAGO1C
Aircraft A333/H-SDE2E3FGHIJ4J5M1P2RWXY/LB1D1

Departure

Time 2026-02-18 21:45
Airport Zürich Airport (LSZH)

Arrival

Time N/A
Airport O.R. Tambo International Airport (FAOR)
Time Latitude Longitude Altitude Speed Heading
2026-02-18 20:48 47.46034 8.55642 1409 ft 0 kts
2026-02-18 21:25 47.45996 8.55637 1404 ft 3 kts 16°
2026-02-18 21:25 47.45981 8.55626 1409 ft 0 kts 40°
2026-02-18 21:25 47.45970 8.55612 1410 ft 3 kts 58°
2026-02-18 21:26 47.45960 8.55586 1410 ft 3 kts 84°
2026-02-18 21:26 47.45959 8.55574 1410 ft 0 kts 95°
2026-02-18 21:39 47.45959 8.55576 1400 ft 0 kts 95°
2026-02-18 21:39 47.45957 8.55619 1404 ft 8 kts 95°
2026-02-18 21:40 47.45952 8.55702 1401 ft 8 kts 95°
2026-02-18 21:40 47.45946 8.55783 1405 ft 8 kts 98°
2026-02-18 21:40 47.45938 8.55871 1408 ft 9 kts 97°
2026-02-18 21:40 47.45931 8.55956 1411 ft 8 kts 97°
2026-02-18 21:41 47.45923 8.56056 1410 ft 0 kts 97°
2026-02-18 21:41 47.45922 8.56085 1413 ft 9 kts 93°
2026-02-18 21:41 47.45916 8.56182 1409 ft 10 kts 95°
2026-02-18 21:42 47.45923 8.56282 1416 ft 9 kts 59°
2026-02-18 21:42 47.45969 8.56314 1411 ft 8 kts 15°
2026-02-18 21:42 47.46027 8.56328 1411 ft 9 kts
2026-02-18 21:42 47.46098 8.56341 1410 ft 12 kts
2026-02-18 21:43 47.46186 8.56356 1408 ft 11 kts 356°
2026-02-18 21:43 47.46208 8.56337 1409 ft 0 kts 323°
2026-02-18 21:44 47.46240 8.56295 1411 ft 26 kts 318°
2026-02-18 21:45 47.47242 8.54924 1420 ft 164 kts 317°
2026-02-18 21:45 47.48157 8.53656 1954 ft 193 kts 318°
2026-02-18 21:45 47.49301 8.52318 2610 ft 225 kts 327°
2026-02-18 21:46 47.50630 8.51018 3105 ft 238 kts 328°
2026-02-18 21:46 47.52020 8.49527 3592 ft 255 kts 317°
2026-02-18 21:46 47.53086 8.47361 4100 ft 268 kts 291°
2026-02-18 21:46 47.53425 8.44612 4624 ft 278 kts 264°
2026-02-18 21:47 47.52912 8.41796 5123 ft 290 kts 245°
2026-02-18 21:47 47.51790 8.39302 5606 ft 303 kts 222°
2026-02-18 21:47 47.49925 8.37810 6128 ft 312 kts 198°
2026-02-18 21:47 47.47782 8.37130 6614 ft 312 kts 191°
2026-02-18 21:48 47.45699 8.36583 7123 ft 296 kts 192°
2026-02-18 21:48 47.43717 8.36035 7632 ft 292 kts 193°
2026-02-18 21:48 47.41724 8.35445 8136 ft 291 kts 195°
2026-02-18 21:48 47.39852 8.34511 8648 ft 286 kts 211°
2026-02-18 21:49 47.37341 8.30227 9704 ft 281 kts 242°
2026-02-18 21:49 47.36437 8.27668 10187 ft 282 kts 243°
2026-02-18 21:49 47.35541 8.25084 10698 ft 284 kts 242°
2026-02-18 21:50 47.34630 8.22474 11181 ft 286 kts 242°
2026-02-18 21:50 47.33722 8.19892 11701 ft 288 kts 242°
2026-02-18 21:50 47.32792 8.17264 12217 ft 290 kts 242°
2026-02-18 21:50 47.31871 8.14671 12735 ft 292 kts 242°
2026-02-18 21:51 47.30936 8.12035 13273 ft 294 kts 242°
2026-02-18 21:51 47.29927 8.09390 13772 ft 295 kts 236°
2026-02-18 21:51 47.28556 8.07143 14258 ft 297 kts 220°
2026-02-18 21:51 47.26763 8.05653 14747 ft 304 kts 203°
2026-02-18 21:52 47.24648 8.05125 15250 ft 314 kts 184°
2026-02-18 21:52 47.22459 8.05746 15757 ft 329 kts 164°
2026-02-18 21:52 47.20483 8.07580 16259 ft 346 kts 142°
2026-02-18 21:52 47.18894 8.10260 16798 ft 355 kts 134°
2026-02-18 21:53 47.16942 8.17133 17885 ft 378 kts 104°
2026-02-18 21:53 47.16628 8.21033 18351 ft 386 kts 98°
2026-02-18 21:53 47.16524 8.24960 18703 ft 391 kts 95°
2026-02-18 21:54 47.16522 8.28988 19066 ft 394 kts 92°
2026-02-18 21:54 47.16549 8.33056 19439 ft 398 kts 92°
2026-02-18 21:54 47.16568 8.37092 19814 ft 400 kts 93°
2026-02-18 21:54 47.16488 8.41198 20188 ft 400 kts 102°
2026-02-18 21:55 47.15740 8.45098 20587 ft 392 kts 119°
2026-02-18 21:55 47.14336 8.48424 20972 ft 383 kts 137°
2026-02-18 21:55 47.12335 8.50899 21380 ft 372 kts 156°
2026-02-18 21:55 47.09976 8.52273 21773 ft 362 kts 172°
2026-02-18 21:56 47.07501 8.52988 22170 ft 362 kts 178°
2026-02-18 21:56 47.04986 8.53416 22564 ft 362 kts 181°
2026-02-18 21:56 47.02496 8.53708 22973 ft 363 kts 182°
2026-02-18 21:56 46.99953 8.53968 23404 ft 366 kts 182°
2026-02-18 21:57 46.94835 8.54550 24217 ft 371 kts 182°
2026-02-18 21:57 46.93132 8.54770 24474 ft 372 kts 181°
2026-02-18 21:57 46.89668 8.55252 25056 ft 374 kts 181°
2026-02-18 21:58 46.87106 8.55621 25481 ft 375 kts 182°
2026-02-18 21:58 46.84504 8.55994 25876 ft 376 kts 182°
2026-02-18 21:58 46.81891 8.56370 26317 ft 377 kts 182°
2026-02-18 21:58 46.79269 8.56750 26779 ft 378 kts 182°
2026-02-18 21:59 46.76645 8.57132 27218 ft 378 kts 182°
2026-02-18 21:59 46.74024 8.57510 27654 ft 379 kts 183°
2026-02-18 21:59 46.71434 8.57882 28147 ft 379 kts 183°
2026-02-18 21:59 46.68794 8.58259 28618 ft 378 kts 183°
2026-02-18 22:00 46.66213 8.58629 29037 ft 376 kts 183°
2026-02-18 22:00 46.63589 8.59005 29462 ft 377 kts 183°
2026-02-18 22:00 46.60971 8.59377 29907 ft 377 kts 184°
2026-02-18 22:00 46.58353 8.59746 30317 ft 378 kts 184°
2026-02-18 22:01 46.53130 8.60482 31005 ft 379 kts 184°
2026-02-18 22:01 46.50490 8.60854 31260 ft 381 kts 184°
2026-02-18 22:01 46.47873 8.61223 31511 ft 383 kts 184°
2026-02-18 22:02 46.45206 8.61600 31769 ft 383 kts 184°
2026-02-18 22:02 46.43391 8.61857 31960 ft 384 kts 184°
2026-02-18 22:02 46.40720 8.62234 32220 ft 386 kts 184°
2026-02-18 22:02 46.38075 8.62607 32490 ft 387 kts 184°
2026-02-18 22:03 46.35396 8.62989 32767 ft 385 kts 184°
2026-02-18 22:03 46.32714 8.63371 33010 ft 388 kts 185°
2026-02-18 22:03 46.29995 8.63755 33157 ft 393 kts 185°
2026-02-18 22:03 46.27293 8.64125 33258 ft 395 kts 185°
2026-02-18 22:04 46.24539 8.64510 33408 ft 399 kts 182°
2026-02-18 22:04 46.21759 8.64957 33527 ft 403 kts 182°
2026-02-18 22:04 46.18959 8.65422 33673 ft 406 kts 182°
2026-02-18 22:05 46.10391 8.66956 33911 ft 428 kts 176°
2026-02-18 22:05 46.04517 8.69171 33911 ft 441 kts 173°
2026-02-18 22:06 45.98657 8.71674 33912 ft 441 kts 172°
2026-02-18 22:06 45.92751 8.74222 33924 ft 443 kts 172°
2026-02-18 22:07 45.86854 8.76730 33917 ft 444 kts 172°
2026-02-18 22:07 45.81901 8.78812 33892 ft 445 kts 172°
2026-02-18 22:08 45.74983 8.81708 33909 ft 445 kts 172°
2026-02-18 22:08 45.70038 8.83775 33907 ft 445 kts 172°
2026-02-18 22:09 45.61101 8.87504 33900 ft 445 kts 172°
2026-02-18 22:10 45.55183 8.89966 33908 ft 446 kts 172°
2026-02-18 22:10 45.49166 8.92459 33903 ft 451 kts 172°
2026-02-18 22:11 45.43160 8.94951 33903 ft 451 kts 172°
2026-02-18 22:11 45.37112 8.97452 33898 ft 454 kts 172°
2026-02-18 22:12 45.31024 8.99962 33897 ft 455 kts 172°
2026-02-18 22:12 45.24939 9.02468 33940 ft 455 kts 172°
2026-02-18 22:13 45.15838 9.06204 33973 ft 454 kts 172°
2026-02-18 22:13 45.09773 9.08685 33984 ft 454 kts 172°
2026-02-18 22:14 45.03677 9.11172 33986 ft 454 kts 172°
2026-02-18 22:14 44.97627 9.13636 33886 ft 454 kts 172°
2026-02-18 22:15 44.91567 9.16099 33881 ft 454 kts 172°
2026-02-18 22:15 44.85477 9.18567 33886 ft 456 kts 172°
2026-02-18 22:16 44.79338 9.21045 33922 ft 458 kts 172°
2026-02-18 22:16 44.76302 9.22272 34139 ft 458 kts 172°
2026-02-18 22:16 44.73195 9.23526 34384 ft 457 kts 172°
2026-02-18 22:17 44.67083 9.25987 34892 ft 459 kts 172°
2026-02-18 22:17 44.64009 9.27222 35149 ft 459 kts 172°
2026-02-18 22:17 44.60958 9.28448 35341 ft 459 kts 171°
2026-02-18 22:18 44.57887 9.29676 35596 ft 458 kts 172°
2026-02-18 22:18 44.54812 9.30904 35857 ft 458 kts 172°
2026-02-18 22:18 44.51733 9.32130 36133 ft 458 kts 172°
2026-02-18 22:18 44.48704 9.33337 36386 ft 458 kts 172°
2026-02-18 22:19 44.45636 9.34558 36620 ft 458 kts 172°
2026-02-18 22:19 44.42559 9.35781 36821 ft 459 kts 172°
2026-02-18 22:19 44.39464 9.37012 36885 ft 462 kts 172°
2026-02-18 22:20 44.33255 9.39478 36893 ft 470 kts 172°
2026-02-18 22:20 44.26923 9.42000 36909 ft 472 kts 172°
2026-02-18 22:21 44.17474 9.45751 36898 ft 472 kts 172°
2026-02-18 22:21 44.11135 9.48252 36898 ft 474 kts 171°
2026-02-18 22:22 44.04806 9.50744 36893 ft 474 kts 171°
2026-02-18 22:22 43.98428 9.53253 36896 ft 474 kts 171°
2026-02-18 22:23 43.92094 9.55738 36898 ft 474 kts 171°
2026-02-18 22:23 43.85711 9.58237 36897 ft 474 kts 171°
2026-02-18 22:24 43.79372 9.60712 36887 ft 474 kts 171°
2026-02-18 22:24 43.73046 9.63177 36896 ft 474 kts 171°
2026-02-18 22:25 43.63506 9.66884 36900 ft 473 kts 171°
2026-02-18 22:26 43.57177 9.69335 36905 ft 474 kts 171°
2026-02-18 22:26 43.50841 9.71784 36903 ft 475 kts 171°
2026-02-18 22:27 43.44462 9.74246 36905 ft 475 kts 171°
2026-02-18 22:27 43.38086 9.76701 36899 ft 475 kts 171°
2026-02-18 22:28 43.31748 9.79135 36904 ft 475 kts 171°
2026-02-18 22:28 43.25371 9.81223 36902 ft 466 kts 180°
2026-02-18 22:29 43.15765 9.81842 36702 ft 459 kts 185°
2026-02-18 22:29 43.12579 9.81898 36564 ft 457 kts 186°
2026-02-18 22:29 43.09369 9.81941 36431 ft 456 kts 186°
2026-02-18 22:30 43.06233 9.81984 36319 ft 455 kts 186°
2026-02-18 22:30 43.03059 9.82034 36162 ft 454 kts 186°
2026-02-18 22:30 42.99905 9.82090 36026 ft 453 kts 185°
2026-02-18 22:30 42.96732 9.82150 35904 ft 453 kts 185°
2026-02-18 22:31 42.93613 9.82212 35766 ft 453 kts 185°
2026-02-18 22:31 42.90445 9.82278 35652 ft 452 kts 185°
2026-02-18 22:31 42.87300 9.82345 35515 ft 451 kts 185°
2026-02-18 22:31 42.84148 9.82412 35389 ft 450 kts 185°
2026-02-18 22:32 42.81057 9.82478 35262 ft 449 kts 185°
2026-02-18 22:32 42.77934 9.82543 35131 ft 448 kts 185°
2026-02-18 22:32 42.74807 9.82608 35007 ft 448 kts 185°
2026-02-18 22:32 42.71689 9.82673 34887 ft 447 kts 185°
2026-02-18 22:33 42.65505 9.82801 34642 ft 444 kts 185°
2026-02-18 22:33 42.62404 9.82865 34521 ft 444 kts 185°
2026-02-18 22:33 42.59313 9.82926 34387 ft 453 kts 185°
2026-02-18 22:34 42.56142 9.82989 34264 ft 456 kts 185°
2026-02-18 22:34 42.52958 9.83059 34138 ft 456 kts 185°
2026-02-18 22:34 42.49782 9.83132 34017 ft 455 kts 185°
2026-02-18 22:35 42.40711 9.83331 33915 ft 454 kts 185°
2026-02-18 22:35 42.37569 9.83385 33917 ft 454 kts 185°
2026-02-18 22:36 42.31230 9.83497 33917 ft 456 kts 184°
2026-02-18 22:36 42.24859 9.83643 33919 ft 457 kts 184°
2026-02-18 22:37 42.15359 9.83849 33921 ft 457 kts 184°
2026-02-18 22:38 42.05795 9.84044 33924 ft 457 kts 184°
2026-02-18 22:38 42.02642 9.84108 33927 ft 457 kts 184°
2026-02-18 22:39 41.89234 9.84379 33934 ft 457 kts 184°
2026-02-18 22:39 41.82900 9.84506 33939 ft 457 kts 184°
2026-02-18 22:40 41.73341 9.84698 33941 ft 458 kts 184°
2026-02-18 22:41 41.64820 9.84868 33944 ft 459 kts 184°
2026-02-18 22:41 41.58457 9.84996 33947 ft 459 kts 184°
2026-02-18 22:42 41.52059 9.85124 33951 ft 459 kts 184°
2026-02-18 22:42 41.45704 9.85250 33952 ft 460 kts 184°
2026-02-18 22:43 41.39286 9.85378 33951 ft 460 kts 184°
2026-02-18 22:43 41.32872 9.85506 33940 ft 460 kts 184°
2026-02-18 22:44 41.26499 9.85629 33956 ft 461 kts 184°
2026-02-18 22:44 41.20070 9.85576 33959 ft 460 kts 185°
2026-02-18 22:45 41.10508 9.85309 33963 ft 460 kts 185°
2026-02-18 22:46 41.04077 9.85139 33966 ft 462 kts 185°
2026-02-18 22:46 40.97687 9.84989 33971 ft 461 kts 185°
2026-02-18 22:47 40.91256 9.84843 33954 ft 462 kts 185°
2026-02-18 22:47 40.84806 9.84694 33966 ft 465 kts 185°
2026-02-18 22:48 40.78327 9.84546 33966 ft 465 kts 185°
2026-02-18 22:48 40.71871 9.84400 33969 ft 465 kts 185°
2026-02-18 22:49 40.62145 9.84177 33976 ft 468 kts 185°
2026-02-18 22:49 40.55601 9.84029 33977 ft 468 kts 185°
2026-02-18 22:50 40.49077 9.83882 33972 ft 468 kts 185°
2026-02-18 22:50 40.42579 9.83734 33979 ft 469 kts 185°
2026-02-18 22:51 40.36045 9.83585 33979 ft 470 kts 185°
2026-02-18 22:51 40.29534 9.83439 33979 ft 470 kts 185°
2026-02-18 22:52 40.22982 9.83292 33982 ft 469 kts 185°
2026-02-18 22:52 40.16491 9.83146 34211 ft 468 kts 185°
2026-02-18 22:53 40.13229 9.83072 34453 ft 468 kts 185°
2026-02-18 22:53 40.03535 9.82850 35171 ft 469 kts 186°
2026-02-18 22:54 40.00266 9.82775 35424 ft 469 kts 186°
2026-02-18 22:54 39.97001 9.82700 35678 ft 469 kts 186°
2026-02-18 22:54 39.93728 9.82625 35939 ft 469 kts 186°
2026-02-18 22:54 39.90461 9.82551 36198 ft 469 kts 186°
2026-02-18 22:55 39.87202 9.82476 36458 ft 468 kts 186°
2026-02-18 22:55 39.83942 9.82402 36723 ft 467 kts 186°
2026-02-18 22:55 39.80740 9.82330 36962 ft 463 kts 187°
2026-02-18 22:55 39.77529 9.82258 37239 ft 461 kts 187°
2026-02-18 22:56 39.74318 9.82184 37515 ft 460 kts 187°
2026-02-18 22:56 39.71112 9.82109 37790 ft 458 kts 187°
2026-02-18 22:56 39.68996 9.82059 37985 ft 457 kts 187°